#timestamp,LO_Frequency,Hit,StdDev 
1506524415.1,286046997.1,N
1506524416.0,286046997.1,N
1506524435.8,286046999.5,N
1506524455.6,286046999.6,N
1506524475.5,286046999.2,N
1506524495.3,286046998.4,N
1506524515.1,286046998.2,N
1506524535.9,286046994.9,N
1506524555.7,286046997.6,N
1506524575.5,286046996.6,N
1506524595.4,286046999.2,N
1506524615.2,286046996.8,N
1506524635.0,286047000.5,N
1506524635.9,286047000.5,N
1506524655.7,286046998.4,N
1506524675.6,286046996.7,N
1506524695.4,286047000.4,N
1506524715.2,286047001.0,N
1506524735.1,286046998.7,N
1506524736.0,286046998.7,N
1506524755.8,286046996.7,N
1506524775.6,286047004.3,N
1506524795.5,286046998.5,N
1506524815.3,286047000.8,N
1506524835.1,286047000.0,N
1506524855.9,286047001.9,N
1506524875.7,286047000.2,N
1506524895.5,286046999.6,N
1506524915.4,286046999.4,N
1506524935.2,286046996.5,N
1506524955.0,286046996.6,N
1506524955.9,286046996.6,N
1506524975.8,286046995.5,N
1506524995.6,286046995.1,N
1506525015.4,286046995.8,N
1506525035.3,286046994.7,N
1506525055.1,286046995.9,N
1506525056.0,286046995.9,N
1506525075.8,286046993.3,N
1506525095.7,286046996.6,N
1506525115.5,286046999.1,N
1506525135.3,286046999.0,N
1506525155.1,286047002.1,N
1506525175.9,286047002.6,N
1506525195.7,286046999.7,N
1506525215.5,286047000.3,N
1506525235.4,286046997.4,N
1506525255.2,286046994.7,N
1506525275.0,286046997.0,N
1506525275.9,286046997.0,N
1506525295.8,286047002.6,N
1506525315.6,286046997.2,N
1506525335.4,286046999.0,N
1506525355.3,286046997.8,N
1506525375.1,286046997.2,N
1506525376.0,286046997.2,N
1506525395.8,286046998.7,N
1506525415.7,286047000.4,N
1506525435.5,286047000.1,N
1506525455.3,286046998.0,N
1506525475.2,286046998.8,N
1506525495.9,286046998.2,N
1506525515.7,286046998.3,N
1506525535.6,286047000.4,N
1506525555.4,286046998.3,N
1506525575.2,286046998.1,N
1506525595.0,286047001.0,N
1506525595.9,286047001.0,N
1506525615.8,286046996.8,N
1506525635.6,286046999.4,N
1506525655.4,286047001.2,N
1506525675.3,286047000.1,N
1506525695.1,286047000.3,N
1506525715.8,286047000.1,N
1506525735.7,286047001.4,N
1506525755.5,286046998.5,N
1506525775.3,286047000.0,N
1506525795.2,286046999.9,N
1506525815.9,286046999.2,N
1506525835.7,286046999.1,N
1506525855.6,286046996.8,N
1506525875.4,286046997.9,N
1506525895.2,286046996.9,N
1506525915.1,286046999.6,N
1506525916.0,286046999.6,N
1506525935.8,286046999.9,N
1506525955.6,286047002.0,N
1506525975.5,286047002.3,N
1506525995.3,286047001.8,N
1506526015.1,286047000.8,N
1506526035.8,286047000.9,N
1506526055.7,286046998.7,N
1506526075.5,286046998.1,N
1506526095.4,286046994.9,Y
1506526115.2,286046997.4,P
1506526135.0,286046996.6,P
1506526135.9,286046996.6,N
1506526155.7,286046997.8,N
1506526175.6,286046996.4,Y
1506526195.4,286046998.1,P
1506526215.2,286046998.7,P
1506526235.1,286046998.2,P
1506526236.0,286046998.2,Y
1506526255.8,286047004.2,P
1506526275.7,286047004.2,N
1506526295.5,286047001.4,N
1506526315.3,286047002.0,N
1506526335.1,286046999.3,N
1506526355.9,286047004.0,N
1506526375.7,286047002.6,N
1506526395.5,286046998.2,N
1506526415.4,286046999.4,N
1506526435.2,286046998.6,N
1506526455.0,286047000.9,N
1506526455.9,286047000.9,N
1506526475.8,286047000.9,N
1506526495.6,286047001.0,N
1506526515.4,286047004.4,N
1506526535.3,286047002.0,N
1506526555.1,286047003.8,N
1506526556.0,286047003.8,N
1506526575.8,286047003.7,N
1506526595.7,286047000.5,N
1506526615.5,286046996.8,N
1506526635.3,286046998.9,N
1506526655.2,286046997.0,N
1506526675.9,286046999.0,N
1506526695.7,286046996.8,N
1506526715.5,286047001.2,N
1506526735.4,286047000.7,N
1506526755.2,286046997.1,N
1506526775.0,286046994.9,N
1506526775.9,286046994.9,N
1506526795.8,286046998.0,N
1506526815.6,286046996.9,N
1506526835.4,286046997.5,N
1506526855.3,286046999.2,N
1506526875.1,286047002.5,N
1506526895.8,286047005.1,N
1506526915.7,286047003.8,N
1506526935.5,286046999.3,N
1506526955.3,286047000.6,N
1506526975.2,286047000.5,N
1506526995.9,286046999.5,N
1506527015.7,286046998.3,N
1506527035.6,286047000.6,N
1506527055.4,286046999.3,N
1506527075.2,286046998.8,N
1506527095.0,286047002.5,N
1506527095.9,286047002.5,N
1506527115.8,286046999.7,N
1506527135.6,286047003.8,N
1506527155.4,286046998.7,N
1506527175.3,286046999.7,N
1506527195.1,286047000.1,N
1506527215.8,286047002.4,N
1506527235.7,286047004.2,N
1506527255.5,286047005.6,N
1506527275.3,286047003.3,N
1506527295.2,286047000.1,N
1506527315.9,286047001.5,N
1506527335.7,286047001.3,N
1506527355.6,286046999.1,N
1506527375.4,286046999.0,N
1506527395.2,286046998.9,N
1506527415.1,286047000.3,N
1506527416.0,286047000.3,N
1506527435.8,286047000.0,N
1506527455.6,286046999.8,N
1506527475.4,286047001.0,N
1506527495.3,286047001.6,N
1506527515.1,286047002.6,N
1506527535.8,286047002.9,N
1506527555.7,286047001.3,N
1506527575.5,286047002.9,N
1506527595.3,286047004.3,N
1506527615.2,286047003.5,N
1506527635.9,286047004.2,N
1506527655.7,286047001.6,N
1506527675.6,286047004.1,N
1506527695.4,286047004.2,N
1506527715.2,286047002.6,N
1506527735.1,286047001.6,N
1506527736.0,286047001.6,N
1506527755.8,286047000.5,N
1506527775.6,286047002.8,N
1506527795.5,286046998.1,N
1506527815.3,286047001.2,N
1506527835.1,286046998.7,N
1506527855.8,286046999.7,N
1506527875.7,286046999.8,N
1506527895.5,286047000.7,N
1506527915.3,286046999.9,N
1506527935.2,286047000.3,N
1506527955.9,286047001.1,N
1506527975.7,286047000.4,N
1506527995.6,286046998.3,N
